Total_Precipitation_Accumulation
0.00 0.00 0.00 0.00 0.00 0.00 0.00 0.00 0.00 0.00 0.00 0.02 0.02 0.01 0.01 0.02 0.00 0.00 0.00 0.00 0.00 0.02 0.08 0.13 0.27 0.26 0.13 0.18 0.25 0.30 0.24 0.68
0.00 0.00 0.00 0.00 0.00 0.00 0.00 0.00 0.00 0.00 0.00 0.01 0.01 0.00 0.02 0.01 0.02 0.00 0.00 0.00 0.00 0.05 0.08 0.09 0.13 0.25 0.43 0.41 0.32 0.26 0.07 0.12
0.00 0.00 0.00 0.00 0.00 0.00 0.00 0.00 0.00 0.00 0.00 0.00 0.02 0.02 0.01 0.00 0.00 0.00 0.06 0.00 0.01 0.03 0.07 0.01 0.07 0.13 0.13 0.17 0.19 0.20 0.12 0.06
0.00 0.00 0.00 0.00 0.00 0.00 0.00 0.00 0.00 0.00 0.00 0.00 0.01 0.02 0.02 0.01 0.03 0.02 0.01 0.01 0.01 0.03 0.01 0.00 0.01 0.01 0.02 0.04 0.02 0.14 0.09 0.08
0.00 0.00 0.00 0.00 0.00 0.00 0.00 0.00 0.00 0.00 0.01 0.02 0.03 0.03 0.04 0.05 0.11 0.08 0.01 0.01 0.04 0.03 0.00 0.00 0.00 0.01 0.04 0.05 0.07 0.12 0.11 0.09
0.00 0.00 0.00 0.00 0.00 0.00 0.00 0.00 0.00 0.00 0.01 0.02 0.02 0.02 0.03 0.05 0.06 0.12 0.03 0.02 0.06 0.02 0.00 0.00 0.01 0.05 0.04 0.10 0.13 0.15 0.13 0.07
0.00 0.00 0.00 0.00 0.00 0.00 0.00 0.00 0.00 0.00 0.00 0.00 0.02 0.03 0.03 0.06 0.06 0.09 0.07 0.08 0.06 0.03 0.01 0.00 0.02 0.06 0.07 0.14 0.10 0.20 0.11 0.12
0.00 0.00 0.00 0.00 0.00 0.00 0.00 0.00 0.00 0.00 0.00 0.00 0.01 0.02 0.04 0.06 0.07 0.04 0.05 0.04 0.06 0.04 0.01 0.01 0.02 0.04 0.11 0.14 0.19 0.23 0.08 0.08
0.00 0.00 0.00 0.00 0.00 0.00 0.00 0.00 0.00 0.00 0.00 0.00 0.00 0.01 0.02 0.04 0.02 0.02 0.01 0.04 0.06 0.08 0.06 0.02 0.04 0.23 0.24 0.23 0.18 0.24 0.12 0.04
0.00 0.00 0.00 0.00 0.00 0.00 0.00 0.00 0.00 0.00 0.00 0.00 0.00 0.00 0.00 0.02 0.02 0.02 0.02 0.04 0.08 0.06 0.03 0.02 0.09 0.32 0.50 0.32 0.28 0.23 0.28 0.07
0.00 0.00 0.00 0.00 0.00 0.00 0.00 0.00 0.00 0.00 0.00 0.00 0.00 0.00 0.00 0.01 0.01 0.02 0.03 0.04 0.02 0.03 0.02 0.01 0.06 0.25 0.54 0.48 0.37 0.28 0.32 0.27
0.00 0.00 0.00 0.00 0.00 0.01 0.00 0.00 0.00 0.00 0.00 0.00 0.00 0.00 0.00 0.01 0.01 0.02 0.04 0.03 0.01 0.01 0.01 0.03 0.11 0.22 0.49 0.63 0.37 0.38 0.31 0.37
0.00 0.00 0.00 0.00 0.00 0.01 0.01 0.00 0.00 0.00 0.00 0.00 0.00 0.00 0.00 0.01 0.02 0.02 0.01 0.01 0.01 0.01 0.03 0.11 0.23 0.28 0.71 0.87 0.66 0.35 0.36 0.31
0.00 0.00 0.00 0.00 0.00 0.01 0.05 0.03 0.03 0.06 0.04 0.00 0.00 0.00 0.00 0.01 0.02 0.00 0.00 0.00 0.01 0.02 0.07 0.20 0.34 0.42 0.64 0.77 0.62 0.40 0.27 0.36
0.00 0.00 0.00 0.00 0.00 0.06 0.09 0.10 0.14 0.14 0.04 0.00 0.00 0.00 0.00 0.01 0.02 0.00 0.00 0.00 0.00 0.01 0.03 0.19 0.33 0.50 0.37 0.47 0.21 0.21 0.13 0.24
0.00 0.00 0.00 0.01 0.03 0.01 0.02 0.01 0.00 0.00 0.00 0.00 0.00 0.00 0.00 0.01 0.02 0.00 0.00 0.00 0.00 0.00 0.01 0.07 0.27 0.41 0.46 0.42 0.09 0.03 0.04 0.14
0.00 0.03 0.12 0.12 0.10 0.07 0.06 0.08 0.06 0.02 0.00 0.00 0.00 0.01 0.00 0.01 0.01 0.00 0.00 0.00 0.00 0.00 0.00 0.04 0.16 0.27 0.34 0.33 0.30 0.13 0.12 0.12
0.00 0.00 0.04 0.16 0.16 0.18 0.18 0.15 0.11 0.10 0.04 0.03 0.02 0.04 0.02 0.01 0.01 0.01 0.00 0.00 0.00 0.00 0.00 0.01 0.04 0.14 0.28 0.24 0.25 0.20 0.18 0.20
0.00 0.00 0.00 0.03 0.04 0.06 0.04 0.05 0.06 0.04 0.06 0.06 0.05 0.04 0.01 0.01 0.02 0.01 0.00 0.00 0.00 0.01 0.02 0.01 0.01 0.03 0.07 0.12 0.19 0.19 0.19 0.24
0.00 0.00 0.00 0.00 0.01 0.01 0.00 0.02 0.05 0.03 0.01 0.02 0.01 0.01 0.02 0.00 0.02 0.02 0.01 0.00 0.00 0.01 0.01 0.03 0.03 0.03 0.03 0.03 0.08 0.17 0.20 0.17